Location: Avon Lake
(41.5219°N, 93.5010°W)
Time: 20:08:38
(UTC+00:00)

BlueWalker 3 - Pass Details

Date: 10 December 2022
Orbit: 499 x 517 km, 53.2° (Epoch: 29 January)

Event Time Altitude Azimuth Distance (km) Brightness Sun altitude
Rises 01:02:17 0° 305° (NW) 2,623 6.2 -25.1°
Reaches altitude 10° 01:04:31 10° 301° (WNW) 1,730 5.3 -25.5°
Enters shadow 01:07:38 46° 264° (W) 690 2.9 -26.1°
